Radiation Dose at Monitoring Post of Fukushima Daini Nuclear Power Station
Date,Time,MP-1(microSv/h),MP-2(microSv/h),MP-3(microSv/h),MP-4(microSv/h),MP-5(microSv/h),MP-6(microSv/h),MP-7(microSv/h),Wind Direction,Wind Velocity(m/s),Rain
2024/04/20,00:00,0.150,0.129,0.212,0.199,0.208,0.116,0.076,west,9.5,No
2024/04/20,00:10,0.148,0.129,0.214,0.198,0.208,0.117,0.076,west,9.3,No
2024/04/20,00:20,0.149,0.130,0.213,0.199,0.208,0.117,0.076,west-northwest,6.6,No
2024/04/20,00:30,0.148,0.130,0.213,0.198,0.208,0.117,0.077,west,6.7,No
2024/04/20,00:40,0.149,0.130,0.213,0.198,0.209,0.117,0.077,west-northwest,6.2,No
2024/04/20,00:50,0.149,0.129,0.213,0.200,0.207,0.116,0.076,west-northwest,3.7,No
2024/04/20,01:00,0.148,0.130,0.213,0.198,0.210,0.117,0.076,west-northwest,3.6,No
2024/04/20,01:10,0.149,0.130,0.214,0.198,0.208,0.116,0.076,west-northwest,1.2,No
2024/04/20,01:20,0.148,0.130,0.214,0.200,0.207,0.117,0.077,northeast,1.6,No
2024/04/20,01:30,0.149,0.130,0.213,0.199,0.208,0.116,0.077,east-northeast,1.4,No
2024/04/20,01:40,0.148,0.130,0.214,0.198,0.207,0.116,0.076,-,CALM,No
2024/04/20,01:50,0.148,0.129,0.213,0.198,0.209,0.116,0.077,east-southeast,1.1,No
2024/04/20,02:00,0.148,0.130,0.213,0.198,0.207,0.116,0.077,east-northeast,1.0,No
2024/04/20,02:10,0.149,0.129,0.214,0.199,0.208,0.115,0.076,north,1.8,No
2024/04/20,02:20,0.148,0.130,0.214,0.199,0.208,0.117,0.076,west-northwest,2.7,No
2024/04/20,02:30,0.149,0.130,0.213,0.198,0.207,0.116,0.076,west-northwest,4.1,No
2024/04/20,02:40,0.148,0.130,0.213,0.199,0.208,0.116,0.077,west-northwest,5.5,No
2024/04/20,02:50,0.150,0.130,0.212,0.198,0.209,0.116,0.077,west-northwest,6.2,No
2024/04/20,03:00,0.148,0.129,0.213,0.199,0.209,0.116,0.075,west-northwest,5.6,No
2024/04/20,03:10,0.148,0.129,0.214,0.199,0.209,0.116,0.076,west-northwest,4.9,No
2024/04/20,03:20,0.149,0.130,0.214,0.198,0.208,0.117,0.076,west-northwest,4.8,No
2024/04/20,03:30,0.149,0.130,0.213,0.197,0.209,0.116,0.077,northwest,3.2,No
2024/04/20,03:40,0.149,0.130,0.213,0.199,0.206,0.117,0.077,northwest,4.0,No
2024/04/20,03:50,0.148,0.130,0.212,0.198,0.208,0.117,0.077,northwest,5.3,No
2024/04/20,04:00,0.148,0.130,0.213,0.198,0.208,0.116,0.076,northwest,5.2,No
2024/04/20,04:10,0.149,0.130,0.213,0.199,0.208,0.117,0.076,northwest,5.5,No
2024/04/20,04:20,0.148,0.129,0.213,0.198,0.208,0.116,0.077,west-northwest,6.7,No
2024/04/20,04:30,0.148,0.130,0.213,0.198,0.207,0.117,0.077,west-northwest,6.8,No
2024/04/20,04:40,0.149,0.129,0.213,0.198,0.208,0.116,0.076,west-northwest,6.9,No
2024/04/20,04:50,0.148,0.130,0.213,0.199,0.208,0.117,0.076,west-northwest,5.9,No
2024/04/20,05:00,0.149,0.130,0.215,0.199,0.208,0.116,0.076,west-northwest,6.0,No
2024/04/20,05:10,0.149,0.130,0.213,0.198,0.209,0.117,0.077,west-northwest,5.9,No
2024/04/20,05:20,0.149,0.129,0.214,0.199,0.208,0.117,0.077,west-northwest,5.7,No
2024/04/20,05:30,0.149,0.130,0.213,0.199,0.208,0.116,0.076,west-northwest,5.9,No
2024/04/20,05:40,0.150,0.129,0.213,0.199,0.207,0.117,0.077,west-northwest,5.5,No
2024/04/20,05:50,0.149,0.130,0.213,0.198,0.207,0.116,0.078,west-northwest,5.6,No
2024/04/20,06:00,0.149,0.129,0.214,0.199,0.209,0.117,0.076,west-northwest,5.2,No
2024/04/20,06:10,0.148,0.130,0.212,0.198,0.206,0.117,0.077,west-northwest,5.7,No
2024/04/20,06:20,0.148,0.130,0.212,0.198,0.208,0.115,0.076,west-northwest,4.7,No
2024/04/20,06:30,0.148,0.129,0.213,0.198,0.206,0.116,0.077,west-northwest,4.4,No
2024/04/20,06:40,0.149,0.128,0.212,0.198,0.207,0.116,0.076,west-northwest,3.6,No
2024/04/20,06:50,0.148,0.129,0.214,0.200,0.208,0.116,0.077,west,2.1,No
2024/04/20,07:00,0.148,0.131,0.212,0.197,0.207,0.117,0.076,west,1.8,No
2024/04/20,07:10,0.148,0.130,0.213,0.198,0.208,0.117,0.076,-,CALM,No
2024/04/20,07:20,0.149,0.128,0.213,0.198,0.207,0.116,0.076,west,1.0,No
2024/04/20,07:30,0.149,0.131,0.213,0.199,0.207,0.116,0.076,southwest,1.3,No
2024/04/20,07:40,0.149,0.129,0.211,0.196,0.206,0.117,0.077,south,1.2,No
2024/04/20,07:50,0.148,0.130,0.213,0.198,0.208,0.116,0.076,-,CALM,No
2024/04/20,08:00,0.148,0.129,0.210,0.197,0.207,0.117,0.077,west,4.5,No
2024/04/20,08:10,0.149,0.129,0.213,0.198,0.208,0.116,0.076,west-northwest,4.5,No
2024/04/20,08:20,0.148,0.129,0.212,0.198,0.208,0.116,0.076,west-northwest,5.6,No
2024/04/20,08:30,0.148,0.130,0.210,0.196,0.206,0.117,0.077,west-northwest,5.7,No
2024/04/20,08:40,0.148,0.129,0.213,0.199,0.208,0.115,0.075,west-northwest,3.9,No
2024/04/20,08:50,0.148,0.129,0.213,0.197,0.206,0.117,0.076,west-northwest,4.9,No
2024/04/20,09:00,0.148,0.130,0.211,0.195,0.206,0.115,0.077,west-northwest,5.5,No
2024/04/20,09:10,0.148,0.129,0.210,0.198,0.208,0.116,0.077,west,5.1,No
2024/04/20,09:20,0.149,0.129,0.210,0.198,0.206,0.116,0.076,west-northwest,6.9,No
2024/04/20,09:30,0.147,0.130,0.211,0.197,0.205,0.115,0.076,west-northwest,6.7,No
2024/04/20,09:40,0.146,0.129,0.213,0.195,0.208,0.116,0.076,northwest,6.1,No
2024/04/20,09:50,0.149,0.128,0.213,0.198,0.208,0.117,0.076,northwest,6.5,No
2024/04/20,10:00,0.148,0.129,0.211,0.199,0.206,0.116,0.076,west-northwest,5.3,No
2024/04/20,10:10,0.147,0.129,0.211,0.197,0.207,0.116,0.076,northwest,6.5,No
2024/04/20,10:20,0.149,0.129,0.211,0.196,0.208,0.117,0.076,west-northwest,6.0,No
2024/04/20,10:30,0.148,0.130,0.211,0.199,0.206,0.116,0.076,west,5.6,No
2024/04/20,10:40,0.148,0.130,0.213,0.198,0.205,0.115,0.076,west-northwest,7.1,No
2024/04/20,10:50,0.148,0.130,0.215,0.197,0.208,0.117,0.076,west-northwest,8.1,No
2024/04/20,11:00,0.149,0.128,0.213,0.197,0.208,0.117,0.076,west-northwest,8.4,No
2024/04/20,11:10,0.148,0.129,0.212,0.196,0.205,0.116,0.076,west-northwest,7.9,No
2024/04/20,11:20,0.147,0.130,0.211,0.199,0.205,0.116,0.076,west-northwest,7.1,No
2024/04/20,11:30,0.149,0.129,0.211,0.199,0.208,0.117,0.077,northwest,4.9,No
2024/04/20,11:40,0.149,0.129,0.211,0.198,0.208,0.117,0.077,west-northwest,7.0,No
2024/04/20,11:50,0.147,0.130,0.210,0.196,0.206,0.115,0.076,west-northwest,6.9,No
2024/04/20,12:00,0.147,0.129,0.211,0.197,0.205,0.116,0.076,west-northwest,6.2,No
2024/04/20,12:10,0.149,0.129,0.211,0.200,0.206,0.117,0.076,west,7.5,No
2024/04/20,12:20,0.148,0.128,0.213,0.198,0.206,0.117,0.077,west-northwest,6.5,No
2024/04/20,12:30,0.148,0.129,0.211,0.198,0.209,0.116,0.077,west-northwest,4.9,No
2024/04/20,12:40,0.146,0.129,0.212,0.197,0.207,0.116,0.076,northwest,7.4,No
2024/04/20,12:50,0.148,0.129,0.212,0.196,0.206,0.116,0.076,west-northwest,4.9,No
2024/04/20,13:00,0.149,0.129,0.211,0.196,0.205,0.117,0.076,west-northwest,5.4,No
2024/04/20,13:10,0.149,0.129,0.212,0.199,0.206,0.116,0.076,northwest,4.3,No
2024/04/20,13:20,0.148,0.128,0.212,0.199,0.206,0.116,0.077,west-northwest,5.3,No
2024/04/20,13:30,0.147,0.128,0.212,0.199,0.204,0.116,0.076,north-northwest,4.7,No
2024/04/20,13:40,0.147,0.131,0.212,0.198,0.206,0.117,0.077,northwest,6.6,No
2024/04/20,13:50,0.149,0.130,0.212,0.196,0.210,0.117,0.076,northwest,7.4,No
2024/04/20,14:00,0.148,0.130,0.215,0.198,0.208,0.116,0.076,northwest,8.6,No
2024/04/20,14:10,0.149,0.130,0.215,0.199,0.207,0.116,0.075,northwest,5.4,No
2024/04/20,14:20,0.150,0.130,0.211,0.197,0.209,0.116,0.077,west-northwest,5.9,No
2024/04/20,14:30,0.149,0.129,0.215,0.199,0.208,0.116,0.077,northwest,3.6,No
2024/04/20,14:40,0.147,0.131,0.215,0.199,0.209,0.116,0.076,northwest,3.4,No
2024/04/20,14:50,0.150,0.130,0.213,0.199,0.209,0.118,0.076,northwest,1.8,No
2024/04/20,15:00,0.149,0.129,0.215,0.200,0.206,0.117,0.076,west-northwest,2.3,No
2024/04/20,15:10,0.148,0.131,0.214,0.199,0.209,0.116,0.076,northwest,2.4,No
2024/04/20,15:20,0.149,0.129,0.213,0.198,0.209,0.117,0.075,northwest,2.5,No
2024/04/20,15:30,0.149,0.130,0.215,0.199,0.207,0.116,0.077,north-northwest,1.5,No
2024/04/20,15:40,0.149,0.129,0.213,0.197,0.209,0.116,0.076,north-northwest,0.8,No
2024/04/20,15:50,0.150,0.129,0.212,0.200,0.207,0.117,0.077,north-northwest,2.0,No
2024/04/20,16:00,0.148,0.130,0.215,0.200,0.208,0.116,0.077,northwest,1.9,No
2024/04/20,16:10,0.147,0.129,0.213,0.198,0.210,0.116,0.076,north,1.5,No
2024/04/20,16:20,0.150,0.130,0.213,0.199,0.207,0.117,0.076,northwest,2.0,No
2024/04/20,16:30,0.149,0.130,0.214,0.198,0.208,0.116,0.077,north-northwest,1.8,No
2024/04/20,16:40,0.149,0.129,0.213,0.198,0.208,0.117,0.075,northwest,2.1,No
2024/04/20,16:50,0.148,0.131,0.214,0.200,0.205,0.116,0.076,northwest,1.9,No
2024/04/20,17:00,0.149,0.131,0.213,0.198,0.210,0.116,0.076,northwest,1.6,No
2024/04/20,17:10,0.148,0.131,0.215,0.200,0.207,0.117,0.077,northwest,1.6,No
2024/04/20,17:20,0.150,0.130,0.212,0.199,0.209,0.116,0.077,north-northwest,2.5,No
2024/04/20,17:30,0.149,0.130,0.215,0.199,0.207,0.116,0.076,north-northwest,3.7,No
2024/04/20,17:40,0.148,0.130,0.213,0.198,0.208,0.116,0.076,north-northwest,4.4,No
2024/04/20,17:50,0.149,0.131,0.214,0.200,0.208,0.116,0.077,northwest,4.3,No
2024/04/20,18:00,0.148,0.129,0.213,0.198,0.207,0.116,0.075,northwest,4.0,No
2024/04/20,18:10,0.150,0.130,0.214,0.200,0.209,0.117,0.076,northwest,3.6,No
2024/04/20,18:20,0.148,0.129,0.214,0.198,0.207,0.117,0.076,northwest,4.9,No
2024/04/20,18:30,0.149,0.131,0.214,0.201,0.209,0.116,0.076,northwest,5.0,No
2024/04/20,18:40,0.149,0.129,0.213,0.199,0.207,0.116,0.076,northwest,4.8,No
2024/04/20,18:50,0.150,0.130,0.215,0.199,0.208,0.116,0.077,north-northwest,4.2,No
2024/04/20,19:00,0.149,0.130,0.213,0.199,0.207,0.116,0.076,northwest,3.6,No
2024/04/20,19:10,0.150,0.130,0.214,0.200,0.209,0.117,0.076,west-northwest,2.9,No
2024/04/20,19:20,0.149,0.131,0.213,0.199,0.207,0.117,0.076,west-northwest,3.2,No
2024/04/20,19:30,0.149,0.130,0.214,0.200,0.209,0.116,0.076,northwest,1.7,No
2024/04/20,19:40,0.149,0.129,0.214,0.199,0.207,0.116,0.076,north-northwest,2.2,No
2024/04/20,19:50,0.149,0.129,0.214,0.199,0.209,0.117,0.076,north-northwest,1.7,No
2024/04/20,20:00,0.148,0.130,0.214,0.199,0.208,0.117,0.076,northwest,1.7,No
2024/04/20,20:10,0.150,0.130,0.213,0.200,0.210,0.116,0.076,northwest,1.6,No
2024/04/20,20:20,0.149,0.129,0.215,0.199,0.207,0.116,0.076,north-northwest,1.7,No
2024/04/20,20:30,0.150,0.130,0.213,0.198,0.209,0.117,0.077,northwest,1.8,No
2024/04/20,20:40,0.148,0.131,0.214,0.200,0.207,0.116,0.075,north-northwest,1.7,No
2024/04/20,20:50,0.150,0.131,0.214,0.199,0.209,0.116,0.076,north-northwest,1.4,No
2024/04/20,21:00,0.149,0.130,0.215,0.199,0.208,0.116,0.077,northwest,2.2,No
2024/04/20,21:10,0.148,0.130,0.214,0.200,0.208,0.117,0.077,north-northwest,2.9,No
2024/04/20,21:20,0.150,0.131,0.213,0.199,0.209,0.116,0.077,north-northwest,4.7,No
2024/04/20,21:30,0.149,0.130,0.214,0.200,0.208,0.118,0.077,north-northwest,4.2,No
2024/04/20,21:40,0.150,0.131,0.215,0.198,0.210,0.117,0.077,north,4.1,No
2024/04/20,21:50,0.149,0.131,0.214,0.200,0.208,0.117,0.076,north-northwest,7.0,No
2024/04/20,22:00,0.150,0.131,0.213,0.200,0.209,0.116,0.077,north-northwest,7.4,No
2024/04/20,22:10,0.150,0.131,0.215,0.199,0.206,0.116,0.077,north-northwest,6.5,No
2024/04/20,22:20,0.149,0.129,0.215,0.201,0.209,0.117,0.077,north-northwest,6.3,No
2024/04/20,22:30,0.150,0.130,0.214,0.200,0.208,0.117,0.077,northwest,4.3,No
2024/04/20,22:40,0.149,0.130,0.214,0.200,0.209,0.117,0.077,north,1.8,No
2024/04/20,22:50,0.150,0.130,0.215,0.199,0.209,0.117,0.077,north,2.1,No
2024/04/20,23:00,0.149,0.130,0.213,0.199,0.206,0.116,0.077,north-northwest,2.7,No
2024/04/20,23:10,0.150,0.129,0.215,0.200,0.210,0.118,0.077,north-northwest,4.1,No
2024/04/20,23:20,0.149,0.130,0.215,0.199,0.208,0.117,0.076,north-northwest,5.5,No
2024/04/20,23:30,0.149,0.131,0.215,0.200,0.210,0.117,0.077,north-northwest,4.7,No
2024/04/20,23:40,0.149,0.130,0.214,0.200,0.208,0.118,0.078,north-northwest,2.7,No
2024/04/20,23:50,0.149,0.130,0.215,0.198,0.208,0.117,0.077,north-northwest,3.2,No
